This is the latest recevied weather packets stored in our database for station/object K5EAA-13. If no packets are shown the sender has not sent any weather packets the latest 10 day(s).
| Time | Temp. | Humidity | Pressure | Rain* | Wind** | Luminosity | Snow |
|---|---|---|---|---|---|---|---|
| 1787587838 | 36.67° C | 32% | 1014.7 hPa | 0 mm | - | 601 W/m² | - |
| 1787587537 | 36.67° C | 34% | 1014.5 hPa | 0 mm | - | 597 W/m² | - |
| 1787587232 | 36.11° C | 34% | 1014.5 hPa | 0 mm | - | 589 W/m² | - |
| 1787586931 | 36.11° C | 34% | 1014.5 hPa | 0 mm | - | 580 W/m² | - |
| 1787586626 | 36.11° C | 34% | 1014.5 hPa | 0 mm | - | 569 W/m² | - |
| 1787586322 | 36.11° C | 34% | 1014.6 hPa | 0 mm | - | 563 W/m² | - |
| 1787586018 | 35.56° C | 35% | 1014.6 hPa | 0 mm | - | 543 W/m² | - |
| 1787585713 | 35.56° C | 34% | 1014.5 hPa | 0 mm | - | 525 W/m² | - |
| 1787585408 | 35.56° C | 36% | 1014.4 hPa | 0 mm | - | 511 W/m² | - |
| 1787585102 | 35° C | 36% | 1014.5 hPa | 0 mm | - | 496 W/m² | - |
| 1787584798 | 35° C | 37% | 1014.5 hPa | 0 mm | - | 478 W/m² | - |
| 1787584496 | 34.44° C | 38% | 1014.3 hPa | 0 mm | - | 468 W/m² | - |
| 1787584195 | 34.44° C | 39% | 1014.4 hPa | 0 mm | - | 449 W/m² | - |
| 1787583890 | 33.89° C | 38% | 1014.3 hPa | 0 mm | - | 437 W/m² | - |
| 1787583585 | 33.89° C | 39% | 1014.5 hPa | 0 mm | - | 425 W/m² | - |
| 1787583284 | 33.33° C | 39% | 1014.2 hPa | 0 mm | - | 416 W/m² | - |
| 1787582979 | 32.78° C | 41% | 1014.5 hPa | 0 mm | - | 401 W/m² | - |
| 1787582674 | 32.78° C | 42% | 1014.2 hPa | 0 mm | - | 215 W/m² | - |
| 1787582370 | 32.22° C | 43% | 1014.4 hPa | 0 mm | - | 374 W/m² | - |
| 1787582070 | 31.67° C | 44% | 1014.3 hPa | 0 mm | - | 364 W/m² | - |
| 1787581765 | 31.67° C | 44% | 1014.3 hPa | 0 mm | - | 168 W/m² | - |
| 1787581460 | 31.67° C | 45% | 1014.3 hPa | 0 mm | - | 183 W/m² | - |
| 1787581160 | 31.67° C | 46% | 1014.3 hPa | 0 mm | - | 199 W/m² | - |
| 1787580855 | 31.67° C | 46% | 1014.3 hPa | 0 mm | - | 179 W/m² | - |
| 1787580552 | 31.11° C | 46% | 1014.2 hPa | 0 mm | - | 170 W/m² | - |
* Rain latest hour (hover to see other rain measurements)
** Current wind speed in m/s (hover to see current wind gust speed)